Regional Weather Roundup
Issued by NWS

Home | Current Version | Previous Version | Text Only | Print | Product List | Glossary Off
Versions: 1 2 3 4 5 6 7 8 9 10 11 12 13 14 15 16 17 18 19 20 21 22 23 24 25 26 27 28 29 30 31 32 33 34 35 36 37 38 39 40 41 42 43 44 45 46 47 48 49 50

000
ASUS43 KDMX 290303
RWRIA

WEATHER ROUNDUP FOR IOWA
NATIONAL WEATHER SERVICE DES MOINES IA
1000 PM CDT WED SEP 28 2016

NOTE: "FAIR" INDICATES FEW OR NO CLOUDS BELOW 12,000 FEET WITH NO
SIGNIFICANT WEATHER AND/OR OBSTRUCTIONS TO VISIBILITY.

* - THESE STATIONS ARE NOT NWS STATIONS...THUS NOT UNDER NWS
QUALITY CONTROL.  THEY ALSO DO NOT REPORT WEATHER SUCH
AS PRECIPITATION OR FOG.

IAZ001>003-012>014-020>022-031>034-043>046-290400-
   NORTHWEST IOWA

CITY           SKY/WX    TMP DP  RH WIND       PRES   REMARKS
CARROLL *      CLEAR     50  46  87 NW6       30.31R
CHEROKEE *     CLEAR     51  48  90 CALM      30.33R
DENISON *      CLEAR     52  46  82 CALM      30.30R HAZE
LE MARS *      CLEAR     48  45  87 N3        30.34S
ORANGE CITY *  CLEAR     52  46  82 CALM      30.34R
SHELDON *      PTCLDY    45  45 100 CALM      30.33R
SIOUX CITY     CLEAR     55  46  71 N7        30.33R
SPENCER        CLEAR     50  46  86 NE7       30.34R
STORM LAKE *   CLEAR     54  46  76 N7        30.33R
$$

IAZ055>058-069>071-079>083-090>094-290400-
   SOUTHWEST IOWA

CITY           SKY/WX    TMP DP  RH WIND       PRES   REMARKS
ATLANTIC *     CLEAR     52  46  82 CALM      30.31R
AUDUBON *      CLEAR     52  46  82 N5        30.32R
CLARINDA *       N/A     52  48  87 MISG      30.31R FOG
COUNCIL BLFS * PTCLDY    54  48  82 NE5       30.31R
CRESTON *      CLOUDY    55  48  76 N9G15     30.29R
HARLAN  *      CLEAR     52  46  82 N5        30.34R
LAMONI         CLEAR     53  49  86 NW7       30.26R
RED OAK *      CLEAR     52  48  87 N7        30.30R
SHENANDOAH *   CLEAR     55  48  76 NE5       30.30R
$$

IAZ047>049-059>061-072>074-084-290400-
   CENTRAL IOWA

CITY           SKY/WX    TMP DP  RH WIND       PRES   REMARKS
AMES           PTCLDY    55  50  83 N9        30.28R
ANKENY *         N/A    N/A N/A N/A MISG        N/A
BOONE *        MOCLDY    54  50  87 N10       30.28R
CHARITON *       N/A     54  50  87 NW9       30.25R
DES MOINES     CLOUDY    58  49  72 N8        30.27R
GRINNELL*      CLEAR     53  49  84 NW6       30.25R
KNOXVILLE *    PTCLDY    55  50  82 NW7       30.24R
MARSHALLTOWN   CLOUDY    55  51  86 N8        30.26R
NEWTON *       CLOUDY    57  50  77 N10       30.24S
PELLA *        MOCLDY    55  49  81 N5        30.26R
PERRY *          N/A     55  49  83 N8        30.29R
$$

IAZ004>006-015-016-023>025-035-036-290400-
   NORTH CENTRAL IOWA

CITY           SKY/WX    TMP DP  RH WIND       PRES   REMARKS
ALGONA *       CLEAR     52  48  87 N6        30.32R
CLARION *      CLEAR     52  50  93 N7        30.30R
ESTHERVILLE    CLEAR     49  48  97 N7        30.33R
FORT DODGE *   CLEAR     54  45  71 N5        30.31R
MASON CITY     CLOUDY    56  51  84 N9        30.31R
FOREST CITY *    N/A     52  46  82 N8        30.31R
WEBSTER CITY * CLEAR     54  50  87 N8        30.28R
IOWA FALLS *     N/A     56  50  81 N8        30.29R
$$

IAZ007>011-017>019-026>030-037>042-050>054-066-290400-
   NORTHEAST IOWA

CITY           SKY/WX    TMP DP  RH WIND       PRES   REMARKS
CEDAR RAPIDS   CLEAR     53  51  93 N6        30.22R
CHARLES CITY * CLEAR     54  52  94 N7        30.29R
CLINTON *      CLEAR     50  49  96 N8        30.19R
DECORAH *      PTCLDY    54  50  87 N6        30.26R
DUBUQUE        CLEAR     53  49  86 N9        30.22R
MONTICELLO *   CLEAR     55  50  82 NE8G15    30.22R
OELWEIN *      CLEAR     54  50  87 N6        30.26R
WATERLOO       MOCLDY    51  47  86 NW7       30.25R
$$

IAZ064-065-067-068-078-290400-
   EAST CENTRAL IOWA

CITY           SKY/WX    TMP DP  RH WIND       PRES   REMARKS
DAVENPORT      CLEAR     53  49  86 N12       30.19R
IOWA CITY      CLEAR     58  51  78 N8        30.22R
MUSCATINE *    CLEAR     55  48  76 N5        30.20R
QUAD CITIES    CLEAR     57  49  74 N7        30.18R
$$

IAZ062-063-075>077-085>089-095>099-290400-
   SOUTHEAST IOWA

CITY           SKY/WX    TMP DP  RH WIND       PRES   REMARKS
BURLINGTON     CLEAR     57  50  77 N13       30.18R
FAIRFIELD *    PTCLDY    54  48  82 NW7       30.21R
FORT MADISON * CLEAR     54  48  82 N7        30.19R
KEOKUK *       PTCLDY    57  50  77 N8        30.18R
OSKALOOSA *      N/A     52  49  89 N8        30.24R
OTTUMWA        MOCLDY    54  49  83 NW9       30.23R
WASHINGTON *     N/A    N/A N/A N/A MISG        N/A
$$

ABBREVIATIONS USED IN REMARKS
   TC - TEMPERATURES IN CELSIUS
  WCI - WIND CHILL INDEX
   HX - HEAT INDEX
  VSB - VISIBILITY
$$





USA.gov is the U.S. government's official web portal to all federal, state and local government web resources and services.